Dewpoint
1 1 0 -0 0 1 1 1 1 1 1 1 1 1 1 0 1 1 0 1 2 5 6 6 6 6 6 6 6 6 6 5 5 4 4 4 4 3 2 2 1 1 1
1 0 0 1 1 1 1 1 1 1 1 2 2 1 1 1 1 1 1 1 2 2 3 3 3 4 4 3 2 3 3 3 3 3 3 2 2 2 1 1 0 0 0
1 1 1 1 1 1 1 1 0 1 1 2 2 2 2 2 2 2 2 2 2 2 2 2 2 2 1 1 1 2 2 2 1 1 1 1 1 1 1 -0 0 0 0
1 1 2 1 1 1 0 -0 -0 1 1 2 2 2 2 2 2 2 2 2 2 2 2 1 1 1 1 1 1 1 1 1 1 1 1 1 0 -0 -1 -1 -1 -1 -1
1 2 2 1 1 0 -1 -0 0 1 1 2 2 2 2 2 2 1 1 1 1 1 1 1 1 1 0 0 -0 -0 -0 -0 -1 -1 -1 -1 -2 -3 -3 -3 -4 -5 -6
2 2 2 1 0 -1 -0 0 1 1 1 2 2 2 2 1 1 1 1 1 1 1 0 -1 -2 -8 -11 -13 -16 -13 -12 -15 -13 -9 -6 -3 -4 -7 -10 -15 -19 -22 -15
2 2 1 1 -0 -0 0 0 1 0 0 1 1 1 1 0 -0 0 -0 -0 -1 -2 -4 -12 -20 -25 -31 -30 -31 -32 -32 -31 -31 -29 -21 -18 -16 -18 -20 -20 -19 -20 -17
2 2 1 0 -1 -0 0 0 0 0 0 1 1 0 0 -1 -1 -1 -2 -4 -12 -19 -25 -29 -30 -29 -28 -29 -30 -30 -30 -29 -28 -27 -26 -26 -25 -23 -22 -22 -22 -23 -22
2 1 1 -1 -1 -0 -0 -0 -0 -0 -0 0 -0 -0 -1 -2 -2 -8 -19 -25 -29 -30 -29 -28 -27 -27 -27 -29 -29 -28 -27 -26 -27 -27 -27 -28 -27 -27 -26 -25 -25 -23 -22
2 1 0 -1 -0 0 -0 0 -0 -0 -0 -1 -1 -1 -2 -8 -22 -27 -30 -30 -28 -27 -27 -26 -26 -27 -29 -29 -29 -26 -25 -23 -24 -25 -26 -27 -27 -27 -27 -27 -26 -25 -23
1 1 -1 -1 -0 -0 -0 -0 -0 -0 -1 -1 -1 -3 -12 -21 -25 -31 -31 -28 -26 -26 -26 -25 -26 -27 -29 -30 -28 -26 -25 -23 -25 -26 -25 -26 -26 -27 -26 -25 -23 -20 -17
1 -1 -1 -1 -0 -0 -0 -0 -1 -1 -1 -1 -2 -7 -20 -24 -27 -30 -30 -29 -26 -26 -25 -25 -26 -27 -30 -28 -27 -26 -26 -26 -26 -25 -25 -25 -25 -25 -25 -22 -18 -16 -15
-0 -1 -1 -1 -1 -0 -0 -0 -1 -1 -2 -1 -4 -16 -22 -24 -25 -27 -28 -28 -27 -26 -24 -25 -28 -29 -28 -26 -25 -25 -26 -26 -26 -25 -25 -25 -26 -25 -23 -20 -18 -16 -15
-1 -2 -1 -1 -0 -0 -0 -1 -1 -1 -1 -2 -11 -21 -22 -23 -24 -25 -25 -26 -26 -25 -24 -24 -25 -27 -26 -26 -26 -25 -25 -25 -25 -25 -25 -25 -25 -25 -23 -21 -19 -17 -16
-0 -0 -0 -1 -1 -1 -1 -1 -1 -1 -2 -8 -18 -20 -20 -22 -22 -23 -24 -26 -26 -26 -24 -24 -25 -23 -23 -25 -25 -25 -25 -25 -25 -25 -25 -25 -24 -24 -23 -22 -21 -20 -19
1 -1 -1 -1 -1 -1 -1 -1 -1 -2 -6 -15 -18 -20 -20 -21 -21 -22 -23 -25 -28 -28 -25 -24 -22 -21 -22 -23 -24 -25 -25 -25 -25 -25 -25 -24 -24 -23 -23 -23 -22 -22 -21
2 0 -0 0 -1 -1 -1 -1 -2 -3 -10 -17 -18 -19 -19 -20 -20 -22 -22 -23 -25 -27 -26 -23 -22 -20 -21 -23 -24 -24 -24 -24 -25 -25 -24 -24 -24 -23 -23 -22 -22 -21 -20
2 2 1 -0 -0 -1 -1 -3 -3 -4 -12 -17 -18 -18 -18 -19 -20 -21 -21 -21 -22 -22 -24 -23 -22 -21 -21 -22 -23 -24 -24 -24 -24 -23 -23 -23 -22 -22 -21 -20 -19 -19 -17
3 2 1 1 0 -0 -2 -2 -4 -5 -10 -14 -15 -14 -16 -17 -18 -19 -19 -19 -19 -20 -21 -22 -23 -22 -22 -21 -21 -22 -22 -22 -21 -20 -18 -17 -16 -15 -15 -14 -12 -11 -11
2 2 1 1 1 -0 -0 -0 -2 -6 -6 -2 -2 -2 -3 -8 -13 -16 -16 -15 -16 -18 -20 -20 -22 -23 -23 -21 -20 -20 -19 -18 -16 -13 -11 -10 -10 -10 -10 -10 -10 -10 -10
1 1 1 1 1 1 0 0 -0 -1 -2 -5 -7 -9 -9 -7 -8 -4 -4 -5 -4 -13 -8 -6 -12 -23 -24 -22 -20 -18 -17 -15 -12 -11 -10 -10 -9 -9 -9 -9 -10 -11 -11
0 0 1 1 1 1 1 0 0 -0 -0 -0 -0 -1 -1 -2 -2 -2 -5 -10 -7 -9 -10 -7 -10 -18 -13 -22 -20 -18 -16 -14 -11 -11 -11 -11 -10 -9 -9 -9 -10 -10 -11
0 0 0 0 0 0 0 0 -0 -0 -0 -0 -0 -1 -1 -1 -1 -2 -2 -3 -3 -5 -5 -5 -14 -7 -18 -23 -20 -13 -16 -14 -13 -13 -12 -11 -11 -10 -9 -9 -9 -9 -10
-0 0 0 -0 -0 -0 -0 -0 -0 -1 -1 -1 -1 -1 -1 -2 -2 -2 -3 -3 -3 -4 -5 -6 -9 -7 -15 -11 -6 -18 -16 -10 -13 -14 -13 -12 -11 -10 -9 -9 -9 -9 -10
-2 -1 -1 -0 -0 -0 -1 -1 -1 -1 -1 -1 -2 -2 -2 -3 -3 -3 -3 -4 -4 -5 -5 -5 -6 -8 -9 -8 -17 -8 -11 -17 -17 -15 -14 -13 -11 -10 -9 -9 -9 -10 -11
-2 -2 -2 -2 -2 -2 -2 -2 -2 -2 -3 -3 -3 -3 -4 -4 -4 -4 -4 -4 -5 -5 -5 -6 -6 -6 -7 -7 -8 -19 -19 -18 -15 -14 -11 -12 -10 -9 -9 -9 -10 -11 -11
Wind_Speed
21 19 17 17 17 17 18 20 20 21 21 21 20 19 19 17 16 15 15 14 15 14 14 14 14 15 17 18 19 17 17 15 16 20 21 19 20 21 23 23 20 15 16
18 16 15 16 18 19 20 21 21 21 21 21 20 19 18 17 16 15 14 12 11 11 12 12 12 12 12 12 14 14 15 15 16 14 17 17 20 21 19 15 13 12 11
17 16 16 17 19 19 20 21 21 21 21 21 20 20 19 17 17 16 15 14 13 11 12 12 12 13 13 12 12 14 14 15 14 15 17 17 17 15 11 10 10 9 10
17 16 17 17 18 18 20 20 20 20 20 19 19 19 17 16 16 15 16 15 14 13 13 12 12 11 11 11 10 10 10 11 11 12 13 12 10 9 9 9 10 10 11
18 17 17 18 19 19 19 19 19 18 18 19 18 17 17 17 16 14 14 14 12 11 11 10 10 9 8 8 6 7 7 8 8 7 7 7 8 9 8 9 9 10 12
17 17 17 18 18 18 17 17 16 17 18 17 16 16 15 14 13 13 12 10 10 10 7 6 5 5 5 5 5 7 8 8 8 8 7 5 9 10 9 10 10 10 5
18 18 18 18 17 17 16 15 15 15 15 15 14 14 13 11 11 11 10 8 7 7 6 5 5 5 6 6 6 7 7 8 8 9 8 9 9 12 11 10 10 9 9
19 18 18 17 17 16 15 14 14 14 13 14 13 13 12 10 9 10 10 9 7 7 7 5 5 7 7 6 7 8 7 8 7 8 10 10 11 11 11 10 10 10 8
21 19 19 19 17 16 15 13 13 13 13 12 12 13 11 10 11 10 8 7 7 7 6 6 7 7 6 8 7 7 8 8 7 8 9 10 10 10 9 10 8 7 4
21 20 19 18 17 16 13 12 12 13 13 12 13 12 13 12 11 9 8 6 7 7 7 7 7 8 8 7 7 8 7 9 8 7 7 7 8 7 7 7 7 6 6
20 19 19 18 16 14 13 13 14 14 14 13 13 13 13 12 11 10 8 7 8 7 7 8 8 9 8 7 7 8 8 9 8 7 7 7 6 6 6 6 6 7 8
19 19 18 17 16 15 15 15 16 16 15 15 16 16 15 13 11 10 9 8 8 8 8 8 10 10 10 8 8 9 7 8 8 8 8 8 8 8 8 8 9 10 11
18 18 17 15 15 16 17 18 18 18 18 18 18 17 15 13 12 11 10 10 9 9 9 9 10 10 10 10 10 10 8 8 9 9 9 9 10 10 10 11 12 13 13
17 17 16 18 17 19 19 20 20 20 20 19 19 18 16 15 14 13 12 12 11 10 10 10 11 11 10 11 11 10 10 11 10 11 11 11 11 11 12 13 13 13 14
17 17 15 14 17 19 20 21 21 19 19 19 19 17 17 16 12 12 13 13 13 12 13 12 12 12 12 11 12 11 11 12 12 12 12 12 12 13 13 13 14 15 16
16 18 15 17 19 19 21 21 21 21 20 20 21 19 18 17 15 15 14 14 14 14 15 15 13 13 13 13 13 13 13 13 13 14 13 13 14 15 15 15 16 17 18
22 21 19 18 18 19 21 21 21 21 22 22 22 21 20 17 17 17 16 16 16 17 17 16 15 14 15 15 15 15 15 15 14 14 14 15 15 16 17 17 17 19 20
21 21 22 20 20 19 21 21 21 21 22 22 21 20 19 19 19 19 18 18 19 20 19 18 17 17 17 17 17 16 16 16 16 15 16 16 17 18 19 19 19 20 21
22 23 23 22 21 22 20 20 23 24 24 22 21 21 20 20 20 20 21 23 23 23 21 21 19 19 19 19 18 18 17 16 16 16 17 18 19 19 21 21 21 22 23
22 22 24 25 26 24 23 23 23 24 24 26 27 26 21 23 26 24 24 26 26 25 23 22 22 21 21 20 20 19 18 18 17 17 18 20 20 21 22 22 22 23 24
21 22 23 25 26 28 29 29 28 28 28 29 29 27 26 29 33 34 30 30 30 28 28 28 25 23 21 21 21 20 19 19 18 19 20 21 22 23 22 23 23 24 25
20 20 22 24 23 23 24 25 26 27 28 29 29 29 30 33 33 33 33 34 33 30 31 32 27 22 24 22 20 21 21 21 20 21 22 23 23 24 24 24 24 25 25
16 18 20 22 22 21 21 21 21 22 24 25 26 27 28 30 31 30 33 35 34 33 34 28 25 25 23 21 20 21 23 21 21 23 23 24 25 25 25 25 25 26 27
13 15 16 17 18 19 19 19 19 20 20 22 23 25 26 27 27 28 29 32 31 31 29 29 28 24 22 26 24 22 21 22 24 24 24 24 26 26 27 27 28 28 28
11 12 13 15 16 16 17 18 19 20 21 22 23 24 24 24 25 24 25 27 26 25 28 30 28 24 25 18 20 21 22 24 23 24 25 26 27 26 27 27 28 28 26
10 12 13 14 15 16 17 17 18 19 20 21 21 21 21 21 21 21 20 20 20 21 23 25 27 23 19 20 20 22 23 22 23 24 26 27 27 27 26 26 26 26 26
Wind_Direction
208 221 234 248 258 264 268 271 272 273 274 273 273 273 275 275 274 272 271 268 262 255 248 251 252 254 253 252 257 258 257 259 263 264 266 267 270 275 283 290 289 286 291
218 232 245 258 265 271 273 272 273 271 272 271 271 270 270 270 266 263 263 263 261 260 258 256 258 257 259 258 256 253 255 261 257 256 266 265 267 275 284 282 283 274 275
223 233 245 256 263 266 268 270 270 268 268 268 268 268 267 266 263 260 259 257 253 254 255 255 256 257 260 257 255 255 259 263 263 265 270 270 271 275 267 275 278 277 276
230 241 253 260 265 266 266 267 267 266 264 263 263 265 266 263 260 255 254 252 249 248 250 251 252 251 251 251 249 255 257 264 267 267 271 275 278 267 269 274 279 278 277
239 249 258 264 269 270 268 265 261 257 254 259 262 263 263 261 257 252 246 244 244 242 242 245 248 250 246 240 239 241 244 251 265 271 281 283 290 292 284 284 282 284 290
245 256 265 268 271 270 270 264 257 256 257 256 258 262 260 259 251 240 236 230 235 232 226 224 217 239 255 255 262 264 265 270 263 264 272 281 284 290 291 284 286 288 283
250 257 263 267 264 261 265 271 266 260 254 255 259 259 253 246 239 226 220 213 206 204 210 217 244 269 278 285 285 270 272 272 267 259 248 253 256 271 283 282 284 290 282
248 255 263 264 268 267 270 262 257 252 245 245 249 252 230 224 219 201 194 184 197 213 226 235 251 264 273 275 277 281 285 275 272 261 257 268 268 272 275 278 282 289 297
252 261 265 266 264 264 262 256 246 239 235 237 240 235 220 210 204 198 198 195 210 226 238 249 257 270 273 275 280 285 281 278 270 267 266 268 271 273 275 278 283 293 301
251 259 260 261 259 259 254 244 236 229 227 233 235 219 206 202 203 207 212 211 226 240 253 261 268 274 284 281 280 276 277 276 284 281 275 272 277 279 277 273 276 276 274
250 254 253 257 256 252 240 232 229 226 227 228 221 210 207 210 214 219 222 225 236 251 262 269 277 281 285 286 270 271 272 278 281 284 288 288 285 282 276 271 272 271 270
248 250 252 252 249 242 234 230 227 224 226 225 212 211 213 217 221 222 227 235 245 256 263 275 283 294 299 291 279 278 278 273 279 285 283 282 279 278 275 274 277 276 275
244 247 245 243 246 241 232 228 224 223 224 219 214 215 218 224 229 233 236 245 252 260 267 279 289 292 291 287 289 289 281 276 280 280 278 278 276 274 275 277 280 281 279
245 243 242 244 238 237 229 225 226 226 222 219 219 221 227 233 238 243 250 255 260 268 278 286 289 284 280 285 288 284 283 281 279 276 274 274 276 275 273 277 282 287 290
246 243 238 244 246 238 232 231 230 228 225 226 226 230 236 242 248 253 254 260 267 272 277 281 282 277 279 284 283 284 283 280 277 274 274 275 276 277 280 281 284 287 289
253 251 238 245 247 243 235 232 229 225 224 225 228 232 238 244 246 251 255 257 262 268 272 274 274 274 279 281 283 284 281 280 279 275 276 278 278 280 282 283 286 287 288
243 240 233 233 238 244 240 235 233 231 230 230 233 237 244 248 250 251 252 255 259 263 265 268 272 273 279 281 281 279 278 278 277 280 281 282 280 280 281 284 286 286 287
252 247 237 235 230 233 245 242 239 239 239 241 243 249 251 251 253 252 253 253 255 259 265 269 273 276 278 281 281 279 277 276 278 279 282 283 282 283 283 285 286 288 289
253 248 242 233 234 231 229 242 242 240 240 243 245 246 246 249 251 249 250 253 259 263 266 270 273 274 278 280 280 278 277 277 276 282 285 285 286 285 285 287 288 288 290
248 251 250 242 237 232 238 238 238 245 245 249 250 247 249 254 251 251 255 262 265 265 267 272 273 275 276 278 278 276 275 275 278 285 287 286 288 287 287 288 287 288 289
251 248 250 251 246 245 246 247 247 245 247 249 251 253 249 251 253 255 258 261 256 263 262 259 273 276 277 276 275 276 274 275 281 288 288 289 289 287 287 286 287 288 291
251 248 247 251 253 250 250 251 251 254 256 260 262 262 261 260 259 260 255 253 255 256 256 261 262 266 274 274 274 273 274 278 285 288 286 287 288 287 288 288 288 290 292
246 244 244 247 252 254 253 254 255 256 259 262 266 268 267 266 268 266 264 263 262 254 258 252 255 256 269 269 272 275 278 282 286 284 285 287 288 288 288 287 288 291 292
246 245 243 243 245 249 252 255 259 263 266 268 269 270 270 270 268 266 264 264 265 260 258 247 248 250 257 262 272 277 276 282 283 283 285 286 287 287 286 288 289 290 292
247 245 244 245 245 250 254 259 262 266 270 273 275 275 274 272 271 269 265 264 266 260 255 252 250 245 253 267 273 276 282 281 281 283 285 288 287 285 283 283 284 289 291
253 249 246 246 249 250 255 259 266 273 277 278 276 275 274 273 272 271 266 262 260 258 256 255 253 258 249 256 280 281 280 281 284 288 290 288 286 284 282 286 290 290 291
Height
1493 1498 1500 1502 1504 1505 1505 1505 1505 1505 1505 1504 1503 1503 1504 1504 1504 1502 1502 1501 1502 1502 1502 1502 1502 1502 1502 1503 1506 1504 1506 1506 1506 1505 1504 1505 1504 1503 1501 1501 1499 1499 1498
1491 1494 1496 1498 1500 1501 1500 1500 1500 1500 1500 1501 1500 1500 1499 1500 1500 1499 1500 1499 1498 1498 1499 1498 1497 1498 1498 1498 1500 1498 1501 1500 1502 1501 1499 1500 1501 1499 1497 1497 1496 1496 1495
1487 1490 1492 1493 1495 1494 1494 1494 1494 1495 1495 1495 1497 1496 1496 1495 1496 1497 1497 1496 1495 1494 1497 1496 1495 1495 1495 1495 1496 1496 1496 1497 1497 1496 1496 1496 1495 1494 1494 1494 1493 1493 1492
1485 1486 1488 1488 1491 1489 1489 1489 1489 1490 1490 1490 1491 1492 1492 1491 1492 1491 1493 1492 1491 1490 1492 1493 1494 1493 1493 1493 1492 1494 1493 1494 1493 1493 1493 1493 1492 1491 1491 1492 1491 1490 1490
1480 1482 1483 1484 1484 1484 1485 1483 1484 1485 1484 1486 1486 1488 1488 1488 1487 1487 1487 1489 1489 1488 1489 1490 1490 1491 1491 1492 1489 1490 1490 1490 1491 1491 1491 1491 1489 1489 1489 1489 1489 1488 1487
1476 1477 1478 1478 1479 1478 1478 1478 1478 1480 1481 1481 1482 1484 1484 1484 1483 1483 1485 1484 1485 1487 1486 1489 1488 1489 1491 1489 1488 1488 1489 1488 1488 1489 1489 1490 1488 1490 1488 1487 1487 1486 1486
1473 1474 1474 1475 1474 1474 1473 1473 1476 1476 1478 1478 1478 1479 1481 1481 1481 1481 1481 1481 1484 1487 1487 1485 1486 1489 1488 1487 1486 1487 1486 1486 1486 1487 1486 1484 1483 1485 1486 1485 1484 1484 1483
1469 1470 1469 1469 1468 1468 1468 1471 1472 1473 1473 1476 1476 1477 1478 1479 1480 1480 1481 1479 1482 1485 1487 1484 1485 1487 1486 1485 1485 1485 1483 1484 1483 1483 1483 1480 1481 1482 1482 1482 1482 1481 1480
1463 1464 1464 1464 1465 1465 1466 1468 1469 1469 1471 1473 1474 1475 1476 1477 1479 1481 1481 1478 1480 1484 1484 1484 1484 1484 1484 1483 1482 1481 1481 1481 1481 1480 1480 1478 1478 1479 1480 1480 1479 1478 1478
1460 1460 1461 1461 1462 1463 1464 1465 1466 1467 1469 1471 1472 1472 1474 1476 1478 1480 1480 1478 1481 1483 1483 1483 1482 1482 1482 1481 1479 1479 1479 1478 1478 1477 1477 1476 1476 1476 1477 1477 1477 1477 1476
1456 1456 1456 1457 1458 1460 1461 1462 1464 1465 1467 1468 1469 1471 1474 1475 1477 1478 1477 1479 1481 1480 1480 1480 1479 1479 1479 1478 1477 1477 1476 1476 1475 1475 1475 1475 1474 1473 1474 1474 1474 1475 1475
1451 1452 1453 1453 1454 1456 1458 1460 1461 1463 1464 1466 1468 1470 1472 1473 1475 1476 1477 1478 1478 1478 1478 1477 1477 1476 1475 1475 1475 1475 1475 1474 1473 1473 1473 1473 1472 1471 1471 1471 1472 1472 1472
1447 1448 1449 1450 1451 1453 1455 1457 1458 1460 1462 1463 1465 1467 1469 1471 1473 1474 1475 1475 1476 1476 1475 1475 1474 1473 1473 1473 1472 1472 1472 1472 1471 1471 1471 1470 1469 1469 1469 1469 1469 1468 1468
1444 1445 1446 1447 1448 1450 1452 1453 1455 1457 1459 1461 1463 1465 1467 1469 1470 1471 1472 1473 1473 1473 1473 1472 1471 1471 1471 1470 1470 1469 1469 1469 1468 1468 1468 1467 1467 1466 1466 1466 1465 1464 1464
1441 1442 1442 1444 1445 1447 1448 1450 1452 1454 1457 1459 1461 1463 1465 1466 1468 1469 1469 1470 1471 1470 1470 1469 1469 1469 1468 1467 1467 1466 1466 1466 1465 1465 1464 1464 1464 1463 1463 1463 1462 1461 1460
1437 1438 1440 1442 1442 1443 1445 1447 1449 1451 1453 1456 1458 1460 1462 1463 1464 1465 1466 1467 1467 1467 1466 1466 1466 1466 1465 1465 1464 1463 1463 1462 1462 1462 1461 1460 1460 1460 1460 1459 1458 1457 1456
1432 1434 1435 1437 1439 1440 1442 1444 1445 1448 1450 1452 1454 1456 1458 1460 1461 1461 1462 1463 1463 1463 1462 1462 1462 1462 1462 1461 1459 1459 1459 1459 1459 1458 1457 1457 1456 1456 1455 1455 1454 1453 1451
1428 1430 1431 1432 1434 1437 1438 1440 1442 1444 1446 1448 1450 1452 1454 1455 1457 1458 1458 1458 1458 1457 1457 1458 1457 1458 1457 1456 1455 1455 1455 1455 1455 1454 1453 1452 1452 1451 1450 1449 1449 1447 1446
1423 1424 1426 1428 1430 1432 1435 1435 1438 1440 1441 1443 1445 1447 1448 1450 1451 1451 1452 1452 1452 1452 1453 1452 1453 1453 1452 1451 1451 1451 1451 1451 1450 1449 1448 1448 1447 1446 1445 1444 1442 1441 1439
1418 1420 1421 1423 1425 1427 1428 1430 1432 1434 1436 1438 1439 1440 1444 1445 1444 1445 1446 1446 1446 1447 1447 1447 1447 1447 1447 1446 1446 1445 1445 1445 1445 1444 1443 1442 1441 1440 1439 1437 1436 1434 1433
1411 1414 1416 1417 1419 1421 1423 1424 1426 1428 1430 1431 1433 1435 1437 1438 1438 1438 1438 1438 1439 1441 1441 1441 1441 1441 1441 1441 1440 1440 1439 1439 1439 1438 1437 1437 1435 1434 1433 1431 1430 1428 1426
1405 1407 1409 1411 1413 1414 1416 1418 1419 1420 1422 1423 1424 1426 1427 1427 1428 1428 1429 1430 1431 1433 1433 1433 1434 1434 1435 1435 1435 1434 1434 1433 1434 1433 1432 1431 1429 1427 1426 1425 1423 1422 1420
1400 1401 1403 1405 1406 1409 1410 1412 1413 1415 1416 1416 1417 1417 1418 1418 1418 1419 1419 1420 1421 1423 1424 1425 1426 1427 1429 1429 1429 1428 1428 1428 1428 1426 1425 1424 1422 1420 1419 1418 1417 1415 1413
1395 1396 1398 1399 1401 1403 1404 1406 1407 1408 1409 1410 1410 1410 1410 1410 1410 1410 1411 1411 1412 1414 1415 1416 1418 1419 1422 1422 1422 1422 1422 1422 1421 1419 1418 1417 1415 1414 1412 1411 1409 1408 1405
1391 1392 1393 1395 1396 1397 1399 1400 1401 1402 1403 1403 1403 1403 1402 1402 1402 1402 1403 1403 1404 1406 1407 1409 1410 1412 1413 1415 1415 1415 1415 1415 1413 1412 1411 1409 1408 1406 1405 1403 1402 1399 1398
1387 1388 1389 1390 1392 1393 1394 1395 1395 1396 1396 1396 1396 1396 1396 1395 1395 1396 1396 1397 1398 1399 1401 1402 1404 1405 1406 1407 1408 1409 1408 1407 1406 1405 1403 1401 1399 1398 1397 1395 1393 1392 1390